Home   Weather   Monaco   Past weeks

Flag for Monaco Past Weather in Monaco, Monaco — Yesterday and Last 2 Weeks

Now
59 °F

Passing clouds.


Feels Like: 57 °F
Forecast: 51 / 64 °F
Wind: 9 mph from East

Location: Nice Airport

Current Time: Apr 24, 2017 at 9:16:37 pm

Latest Report: Apr 24, 2017 at 8:30 pm


Visibility: N/A

Pressure: 30.04 "Hg

Humidity: 77%

Dew Point: 52 °F

Location of MonacoLocation

Past Weather in Monaco — Graph

°F

Monaco Temperature Yesterday

Maximum temperature yesterday: 64 °F (at 1:00 pm)
Minimum temperature yesterday: 52 °F (at 5:30 am)
Average temperature yesterday: 59 °F

High & Low Weather Summary for the Past Weeks

 TemperatureHumidityPressure
High68 °F (Apr 12, 4:00 pm)94% (Apr 10, 2:00 am)30.39 "Hg (Apr 10, 2:00 am)
Low45 °F (Apr 20, 2:30 am)17% (Apr 20, 11:00 am)29.74 "Hg (Apr 18, 2:00 pm)
Average59 °F69%30.04 "Hg
* Reported Apr 9 8:00 pm — Apr 24 8:00 pm, Monaco, Weather by CustomWeather, © 2017

Note: Actual official high and low records may vary slightly from our data, if they occured in-between our weather recording intervals... More about our weather records

Advertising

Monaco Weather History for the Previous 24 Hours

Scroll right to see more
 ConditionsComfort  
Time TempWeatherWind HumidityBarometerVisibility
8:00 pm
Mon, Apr 24
61 °FPartly sunny.8 mph72%30.04 "HgN/A
7:48 pm61 °FBroken clouds.8 mph72%30.04 "HgN/A
7:00 pm61 °FBroken clouds.6 mph77%30.07 "HgN/A
6:30 pm61 °FBroken clouds.7 mph77%30.07 "HgN/A
6:00 pm61 °FBroken clouds.8 mph77%30.07 "HgN/A
5:30 pm63 °FBroken clouds.8 mph68%30.07 "HgN/A
5:00 pm64 °FPartly sunny.7 mph64%30.07 "HgN/A
4:30 pm63 °FPartly sunny.8 mph68%30.07 "HgN/A
4:00 pm63 °FPartly sunny.9 mph68%30.09 "HgN/A
3:30 pm63 °FPartly sunny.9 mph59%30.09 "HgN/A
3:00 pm64 °FPartly sunny.10 mph56%30.09 "HgN/A
2:30 pm63 °FPartly sunny.10 mph64%30.09 "HgN/A
2:00 pm63 °FPartly sunny.9 mph68%30.09 "HgN/A
1:30 pm63 °FPartly sunny.9 mph73%30.09 "HgN/A
1:00 pm64 °FPartly sunny.9 mph68%30.12 "HgN/A
12:30 pm63 °FPartly sunny.9 mph73%30.12 "HgN/A
12:00 pm63 °FPartly sunny.6 mph68%30.12 "HgN/A
11:30 am63 °FPartly sunny.7 mph73%30.12 "HgN/A
11:00 am63 °FPartly sunny.7 mph68%30.12 "HgN/A
10:30 am63 °FMore clouds than sun.7 mph68%30.12 "HgN/A
10:00 am61 °FMore clouds than sun.7 mph72%30.12 "HgN/A
9:30 am61 °FMore clouds than sun.8 mph72%30.12 "HgN/A
9:00 am61 °FMore clouds than sun.9 mph72%30.12 "HgN/A
8:30 am59 °FMore clouds than sun.9 mph82%30.12 "HgN/A
8:00 am59 °FMore clouds than sun.9 mph82%30.09 "HgN/A
7:30 am59 °FMore clouds than sun.10 mph82%30.09 "HgN/A
7:00 am59 °FMore clouds than sun.10 mph82%30.09 "HgN/A
6:30 am59 °FMostly cloudy.14 mph82%30.09 "HgN/A
6:00 am59 °FMostly cloudy.10 mph77%30.09 "HgN/A
5:30 am59 °FMostly cloudy.10 mph82%30.09 "HgN/A
5:00 am59 °FMostly cloudy.13 mph82%30.07 "HgN/A
4:30 am59 °FMostly cloudy.15 mph82%30.07 "HgN/A
3:30 am61 °FPartly cloudy.13 mph77%30.07 "HgN/A
3:00 am61 °FPartly cloudy.12 mph77%30.07 "HgN/A
2:30 am61 °FPartly cloudy.13 mph77%30.09 "HgN/A
2:00 am61 °FPartly cloudy.12 mph77%30.09 "HgN/A
1:30 am59 °FPartly cloudy.10 mph82%30.09 "HgN/A
1:00 am61 °FPassing clouds.13 mph77%30.09 "HgN/A
12:30 am61 °FPassing clouds.13 mph77%30.09 "HgN/A
12:00 am61 °FPassing clouds.15 mph77%30.09 "HgN/A
11:30 pm
Sun, Apr 23
61 °FPassing clouds.15 mph77%30.09 "HgN/A
11:00 pm61 °FPassing clouds.16 mph77%30.09 "HgN/A
10:30 pm61 °FPassing clouds.15 mph77%30.09 "HgN/A
10:00 pm61 °FPassing clouds.16 mph77%30.07 "HgN/A
9:30 pm61 °FPassing clouds.16 mph77%30.07 "HgN/A
9:00 pm61 °FPassing clouds.16 mph77%30.07 "HgN/A
Weather by CustomWeather, © 2017

See weather overviewHow to use our weather pages